This is the latest recevied weather packets stored in our database for station/object AD8BW. If no packets are shown the sender has not sent any weather packets the latest 10 day(s).
| Time | Temp. | Humidity | Pressure | Rain* | Wind** | Luminosity | Snow |
|---|---|---|---|---|---|---|---|
| 1777307657 | 17.22° C | 53% | 1017 hPa | 0 mm | - | 309 W/m² | - |
| 1777307059 | 16.67° C | 55% | 1017.3 hPa | 0 mm | - | 167 W/m² | - |
| 1777306458 | 16.67° C | 56% | 1017.4 hPa | 0 mm | - | 527 W/m² | - |
| 1777305858 | 16.67° C | 60% | 1017.7 hPa | 0 mm | - | 429 W/m² | - |
| 1777305259 | 16.67° C | 58% | 1017.8 hPa | 0 mm | - | 204 W/m² | - |
| 1777304671 | 16.11° C | 58% | 1017.8 hPa | 0 mm | - | 341 W/m² | - |
| 1777304055 | 16.11° C | 59% | 1017.7 hPa | 0 mm | - | 445 W/m² | - |
| 1777303453 | 16.11° C | 62% | 1017.6 hPa | 0 mm | - | 139 W/m² | - |
| 1777302854 | 15.56° C | 59% | 1017.5 hPa | 0 mm | - | 179 W/m² | - |
| 1777302252 | 15° C | 60% | 1017.8 hPa | 0 mm | - | 343 W/m² | - |
| 1777301653 | 15° C | 61% | 1018.1 hPa | 0 mm | - | 392 W/m² | - |
| 1777301053 | 15° C | 63% | 1018.1 hPa | 0 mm | - | 657 W/m² | - |
| 1777300449 | 14.44° C | 65% | 1018.3 hPa | 0 mm | - | 367 W/m² | - |
| 1777299848 | 14.44° C | 66% | 1018.5 hPa | 0 mm | - | 475 W/m² | - |
| 1777299251 | 13.89° C | 68% | 1018.4 hPa | 0 mm | - | 251 W/m² | - |
| 1777298644 | 13.33° C | 70% | 1018.7 hPa | 0 mm | - | 107 W/m² | - |
| 1777298045 | 12.78° C | 68% | 1018.8 hPa | 0 mm | - | 257 W/m² | - |
| 1777297446 | 12.78° C | 69% | 1019 hPa | 0 mm | - | 304 W/m² | - |
| 1777296844 | 12.78° C | 70% | 1019.4 hPa | 0 mm | - | 114 W/m² | - |
| 1777296246 | 12.78° C | 74% | 1019.2 hPa | 0 mm | - | 109 W/m² | - |
| 1777295648 | 11.67° C | 75% | 1019 hPa | 0 mm | - | 132 W/m² | - |
| 1777295044 | 11.11° C | 77% | 1019.1 hPa | 0 mm | - | 137 W/m² | - |
| 1777294444 | 11.11° C | 78% | 1019.1 hPa | 0 mm | - | 100 W/m² | - |
| 1777293845 | 10.56° C | 79% | 1019.1 hPa | 0 mm | - | 95 W/m² | - |
| 1777293239 | 10° C | 81% | 1019.3 hPa | 0 mm | - | 98 W/m² | - |
* Rain latest hour (hover to see other rain measurements)
** Current wind speed in m/s (hover to see current wind gust speed)